Airfield :
LOGIN :

Register | Disclaimer

   EN    FR    IT 

 










Legend :    VFR   Marginal VFR   IFR   Intensive IFR   Very Intensive IFR
Visi :
Ceiling :
>= 8 km
>= 3000ft
5 to 8 km
1000 to 3000 ft
1500m to 5 km
500 to 1000 ft
800 to 1500m
200 to 500 ft
< 800m
< 200 ft
Symbols :   Thunderstorms  Fog  Heavy snow  Heavy precipitations  Wind > 20 kt
SIGMETs :     Misc.  Thunderstorms  Icing  Turbulence  Mountain Waves  Volcanic Ashes






- Airport Elevation : 26 ft


ETNT - Wittmundhaven AB

CURRENT METAR :
  • 240420Z 27009KT 9999 FEW020 BKN035 06/03 Q1019 BLU

EXPIRED METARs :
  • 240320Z 27012KT 9999 FEW015 BKN035 06/03 Q1019 BLU
  • 240220Z 27015KT 9999 FEW020 BKN040 06/03 Q1018 BLU

TAF TAF ETNT
Valid from the 24 at 03:00 until the 24 at 12:00 UTC


240215Z 2403/2412 25012KT 9999 NSW SCT020 BKN030
BECMG 2410/2412 17012KT 5000 -RA SCT010 BKN015 BY ETGL



MET'MAP, your aeronautical weather chart ! - Copyright ORBIFLY December 2007 - Disclaimer

ORBIFLY MET'MAP TEAM :

Programming & Development : Alexandra Zaïnal
Concept & original design : Baudouin d'Aumeries
Assistance for programming : Marc-Olivier Méhu
Technical & hardware support : Manuel Goepfert

Contact : metmap@orbifly.com




SOURCES & CREDITS :

   NOAA